Regional Weather Roundup
Issued by NWS

Home | Current Version | Previous Version | Text Only | Print | Product List | Glossary Off
Versions: 1 2 3 4 5 6 7 8 9 10 11 12 13 14 15 16 17 18 19 20 21 22 23 24 25 26 27 28 29 30 31 32 33 34 35 36 37 38 39 40 41 42 43 44 45 46 47 48 49 50

000
ASUS45 KABQ 291401
RWRNM
NEW MEXICO REGIONAL WEATHER ROUNDUP
NATIONAL WEATHER SERVICE ALBUQUERQUE NM
800 AM MDT SAT AUG 29 2015

NOTE: "FAIR" MEANS FEW OR NO CLOUDS BELOW 12,000 FEET AGL WITH NO
       SIGNIFICANT WEATHER OR OBSTRUCTIONS TO VISION.

      THIS PRODUCT IS RELEASED AS TWO VERSIONS.  ONE VERSION NEAR
      THE TOP OF THE HOUR CONTAINING PRELIMINARY DATA FROM ALBUQUERQUE
      AND OTHER STATIONS.  A FINAL VERSION WITH ADDITIONAL DATA IS
      ISSUED ABOUT 10 MINUTES AFTER THE HOUR.

NMZ501-503-504-510>518-291500-
NORTHWEST PLATEAU/NORTHCENTRAL MOUNTAINS

CITY           SKY/WX    TMP DP  RH WIND       PRES   REMARKS
FARMINGTON     SUNNY     66  48  52 E8        30.29R
SANTA FE       SUNNY     61  53  75 NE5       30.37R
TAOS           MOSUNNY   59  39  47 CALM      30.46R

$$
NMZ402-403-502-505>509-291500-
WESTCENTRAL MOUNTAINS/SOUTHWEST MOUNTAINS

CITY           SKY/WX    TMP DP  RH WIND       PRES   REMARKS
GALLUP         SUNNY     56  48  74 CALM      30.35R
SILVER CITY      N/A     68  55  64 NW8       30.26S

$$
NMZ407-409-411-412-291500-
SOUTHERN DESERTS

CITY           SKY/WX    TMP DP  RH WIND       PRES   REMARKS
DEMING         MOSUNNY   71  57  61 E10       30.19R
HOLLOMAN AFB   MOSUNNY   70  55  58 SE3       30.17R
ALAMOGORDO     MOSUNNY   66  57  72 S3        30.19R
T OR C         PTSUNNY   70  58  65 N12       30.22R

$$
NMZ519>523-291500-
CENTRAL VALLEYS/CENTRAL HIGHLANDS

CITY           SKY/WX    TMP DP  RH WIND       PRES   REMARKS
ALBUQUERQUE    MOSUNNY   67  51  56 N9        30.31R
DOUBLE EAGLE   MOSUNNY   64  52  63 NW6       30.34R
CLINES CORNERS MOSUNNY   61  52  72 NW5       30.39R
BELEN          FAIR      67  53  61 W5        30.29R
SOCORRO        NOT AVBL

$$
NMZ524>526-539-540-291500-
SOUTHCENTRAL MOUNTAINS

CITY           SKY/WX    TMP DP  RH WIND       PRES   REMARKS
RUIDOSO        MOSUNNY   61  50  67 MISG      30.39R

$$
NMZ527>531-291500-
NORTHEAST HIGHLANDS/NORTHEAST PLAINS

CITY           SKY/WX    TMP DP  RH WIND       PRES   REMARKS
LAS VEGAS      SUNNY     58  49  72 N7        30.41R
RATON          SUNNY     58  47  66 NE7       30.36R
CLAYTON        SUNNY     69  57  65 N9        30.26R

$$
NMZ532>537-291500-
EASTCENTRAL PLAINS

CITY           SKY/WX    TMP DP  RH WIND       PRES   REMARKS
TUCUMCARI      SUNNY     69  58  67 SW3       30.20R
CANNON AFB     PTSUNNY   68  56  65 VRB2      30.19R
CLOVIS AIRPORT PTSUNNY   66  55  68 N8        30.20R

$$
NMZ028-029-538-291500-
SOUTHEAST PLAINS

CITY           SKY/WX    TMP DP  RH WIND       PRES   REMARKS
ROSWELL        PTSUNNY   68  62  81 CALM      30.19R
ARTESIA        MOSUNNY   68  68 100 CALM      30.21R
CARLSBAD       NOT AVBL


$$



USA.gov is the U.S. government's official web portal to all federal, state and local government web resources and services.